shoulder
new_line
new_line
first
second
third
Al di la della Luna; Beyond the Moon; Astrophotography; Astrofotografia; Danilo Pivato
 
 
         
         
2007

Orbital Elements

Epoch 2007 Aug. 8.0 TT = JDT 2454320.5
T 2007 Aug. 10.8908 TT                                                            MPC
q   1.015245                  (2000.0)                 P                           Q
z  -0.000271       Peri.  174.1156        -0.3381575            -0.6820372
 +/-0.000006       Node    66.0274      -0.8897890            +0.4561015
e   1.000275       Incl.    134.7931      -0.3064717            -0.5716614                   
 
         
         
2007.07.14
Video C/2006 VZ13 (LINEAR) 2007.07.14
2007.07.16
         
         
       
       
         
         
         

 

       
 
Since: 01/01/2004
 
       
 
Since: 01/11/2010